Preview of NWS' New Version of Forecast
This preview is not operational and should not be used for support decisions.

Regional Weather Roundup (RWR)

Issued by National Weather Service (NWS)

                            
000
ASUS42 KTBW 190417
RWRFL 
FLORIDA REGIONAL WEATHER ROUNDUP
NATIONAL WEATHER SERVICE TAMPA BAY RUSKIN FL
1100 PM EST MON FEB 18 2019

NOTE: "FAIR" INDICATES FEW OR NO CLOUDS BELOW 12,000 FEET WITH NO
SIGNIFICANT WEATHER AND/OR OBSTRUCTIONS TO VISIBILITY.

FLZ001>010-012>015-112-114-115-190500-
PANHANDLE FLORIDA
  
CITY           SKY/WX    TMP DP  RH WIND       PRES   REMARKS
PENSACOLA      CLOUDY    60  41  49 NE6       30.23R                  
PENSACOLA NAS  CLOUDY    60  42  51 NE14      30.22R                  
MILTON NAS     CLOUDY    57  42  57 NE7       30.23                   
CRESTVIEW      CLOUDY    58  40  51 NE6       30.25R                  
DUKE FIELD     MOCLDY    57  43  58 NE8       30.23R                  
VALPARAISO     CLOUDY    59  45  58 NE10      30.21R                  
MARY ESTHER    CLOUDY    58  44  58 NE9       30.22R                  
PANAMA CITY    CLOUDY    60  46  59 NE12      30.22S                  
TYNDALL AFB    LGT RAIN  59  46  63 NE10G18   30.23R                  
APALACHICOLA   CLOUDY    61  48  62 NE10      30.21R                  

STATION/POSITION SKY/WX   TEMP    WIND        PRES    WAVE   SWELL
                          AIR SEA DIR/SP/G            HT/PER HT/PER
                          (F)     (DEG/KT/KT) (MB)    (FT/S) (FT/S)
30.1N   87.6W              62      50/ 21/ 25 1023.3R   5/ 5
29.2N   88.2W                      50/ 25/ 31 1021.8R   9/ 8
PANAMA CITY BEAC           60 62   50/ 17/ 23 1023.1S
TOWER C                    61      60/ 27/ 29 1022.5R

$$
FLZ011-016>038-118-127-128-134-139-239-190500-
NORTH FLORIDA
  
CITY           SKY/WX    TMP DP  RH WIND       PRES   REMARKS
MARIANNA       CLOUDY    58  50  75 NE7       30.25S                  
TALLAHASSEE    CLOUDY    61  50  67 NE6       30.25R                  
PERRY          CLOUDY    62  45  52 E6        30.26R                  
LIVE OAK       CLOUDY    61  46  59 NE6       30.26S                  
CROSS CITY     CLOUDY    65  53  63 NE7       30.24R                  
LAKE CITY      CLOUDY    61  45  55 NE6       30.26S                  
GAINESVILLE    MOCLDY    68  58  70 NE6       30.26R                  
WILLISTON        N/A    N/A N/A N/A MISG        N/A                   
PALATKA        CLOUDY   N/A N/A N/A NE6       30.25R                  
MAYPORT NAS    CLOUDY    62  54  74 N8        30.26R                  
JACKSONVILLE   MOCLDY    63  46  54 N7        30.26R                  
JAX NAS        CLOUDY    66  51  58 N10       30.27R                  
JAX CECIL      CLOUDY    64  50  59 N9        30.26R                  
FERNANDINA BEA CLOUDY    62  50  66 N7        30.27R                  
ST AUGUSTINE   CLOUDY    62  51  67 N10       30.26R                  
PALM COAST     CLOUDY    64  51  63 N8        30.24R                  

STATION/POSITION SKY/WX   TEMP    WIND        PRES    WAVE   SWELL
                          AIR SEA DIR/SP/G            HT/PER HT/PER
                          (F)     (DEG/KT/KT) (MB)    (FT/S) (FT/S)
SHELL POINT      NOT AVBL
KEATON BEACH               63      50/ 12/ 16 1023.7R
CEDAR KEY                  69      50/ 11/ 13 1023.1R
FERNANDINA                        320/  2/  4   N/A
30.7N   81.3W                 60                N/A     2/ 9
MAYPORT                    62 60  360/  7/ 10 1024.7R
31.4N   80.9W              59 58  320/  6/  8 1025.0R   1/ 9   2/ 9
ST AUGUSTINE               61 62  360/ 11/ 12 1024.4R

$$
FLZ040-043>046-052-053-057-058-063-144-190500-
INTERIOR CENTRAL FLORIDA
  
CITY           SKY/WX    TMP DP  RH WIND       PRES   REMARKS
OCALA          FAIR      66  60  81 VRB7      30.24R                  
LEESBURG       FAIR      65  58  78 NE13      30.23R                  
SANFORD        CLOUDY    68  63  84 N9        30.21R                  
ORLANDO EXEC   FAIR      69  63  81 N13       30.20S                  
ORLANDO INTL   FAIR      69  63  81 N13       30.20R                  
KISSIMMEE      CLOUDY    71  65  81 NE9       30.20R                  
WINTER HAVEN   MOCLDY    75  67  76 N10       30.19R                  
LAKELAND       FAIR      70  68  94 N5        30.18S                  
BARTOW         CLOUDY    73  70  88 N6        30.17R                  
SEBRING        FAIR      71  67  88 CALM      30.17S                  
OKEECHOBEE     CLOUDY    72  68  88 CALM      30.17R                  

$$
FLZ041-047-054-059-064-141-147-190500-
EAST CENTRAL FLORIDA
  
CITY           SKY/WX    TMP DP  RH WIND       PRES   REMARKS
DAYTONA BEACH  CLOUDY    65  60  84 N12       30.22S                  
DELAND         CLOUDY    64  57  77 N9        30.22S                  
JFK SPACE CTR  CLOUDY    69  67  92 N6        30.19S                  
CAPE CANAVERAL FAIR      74  73  96 S10       30.16R                  
PATRICK AFB    FAIR      71  71 100 SE7       30.17S                  
MELBOURNE      MOCLDY    74  71  91 SE5       30.17S                  
VERO BEACH     FAIR      75  72  90 SE7       30.17S                  
FT PIERCE      FAIR      75  71  87 S5        30.17S                  
STUART         CLOUDY    77  72  83 S5        30.18S                  

STATION/POSITION SKY/WX   TEMP    WIND        PRES    WAVE   SWELL
                          AIR SEA DIR/SP/G            HT/PER HT/PER
                          (F)     (DEG/KT/KT) (MB)    (FT/S) (FT/S)
28.5N   80.2W              71     180/  2/  4 1022.3R   2/ 8   2/ 8
28.9N   78.5W              76 77  160/ 12/ 16 1022.9R   3/ 8   2/ 8
TRIDENT PIER               69 68  160/  4/  5 1022.8R
28.4N   80.5W                 66                N/A     1/ 9

$$
FLZ050-056-061-142-242-148-248-149-249-151-251-155-255-
160-260-190500-
WEST CENTRAL FLORIDA
  
CITY           SKY/WX    TMP DP  RH WIND       PRES   REMARKS
CRYSTAL RIVER  CLOUDY    70  63  78 E8G17     30.22R                  
INVERNESS      CLOUDY    66  64  94 NE7       30.23R                  
BROOKSVILLE    LGT RAIN  71  66  84 NE10      30.21R                  
CLEARWATER AIR FAIR      70  70 100 CALM      30.18S                  
ST PETE CLEARW FAIR      72  69  90 N5        30.17R                  
TAMPA INTL     FAIR      74  70  87 NE3       30.18R                  
TAMPA EXEC     FAIR      70  68  94 CALM      30.19R FOG              
PLANT CITY     FAIR      73  70  88 N3        30.20S                  
MACDILL AFB    FAIR      70  68  94 N3        30.17R                  
PETER O KNIGHT CLOUDY   N/A N/A N/A CALM      30.18R                  
ST PETERSBURG  FAIR      70  69  97 CALM      30.15R FOG              
SARASOTA       FAIR      71  70  96 CALM      30.15R                  
VENICE         FAIR      72  72 100 CALM      30.17S FOG              

STATION/POSITION SKY/WX   TEMP    WIND        PRES    WAVE   SWELL
                          AIR SEA DIR/SP/G            HT/PER HT/PER
                          (F)     (DEG/KT/KT) (MB)    (FT/S) (FT/S)
27.3N   84.2W                 72                N/A     4/ 8
CLEARWATER BEACH           73 69   20/  3/  4 1021.9R
MIDDLE TAMPA BAY           71     160/  5/  5 1021.6R
VENICE                     72 68  100/  4/  4   N/A

$$
FLZ066-069-070-075>078-162-262-165-265-190500-
SOUTHWEST FLORIDA AND KEYS
  
CITY           SKY/WX    TMP DP  RH WIND       PRES   REMARKS
PUNTA GORDA    FOG       68  67  96 CALM      30.18S VSB 1/4          
FT MYERS       FAIR      71  69  93 CALM      30.16R                  
SOUTHWEST INTL FAIR      71  69  93 CALM      30.17R                  
NAPLES         FAIR      74  71  91 SE3       30.16S                  
MARCO ISLAND   FAIR     N/A N/A N/A E3        30.18R                  
IMMOKALEE      FAIR      68  66  94 CALM      30.16R                  
MARATHON       FAIR      80  74  81 E9        30.15S                  
KEY WEST NAS   MOCLDY    79  75  89 E12       30.15R                  
KEY WEST INTL  MOCLDY    79  75  87 E12       30.15R                  

STATION/POSITION SKY/WX   TEMP    WIND        PRES    WAVE   SWELL
                          AIR SEA DIR/SP/G            HT/PER HT/PER
                          (F)     (DEG/KT/KT) (MB)    (FT/S) (FT/S)
NAPLES                     76 74  100/  4/  5 1021.3R
26.0N   85.6W              79 80  120/ 14/ 16 1019.5R   4/ 8   3/ 8
DRY TORTUGAS               77     120/  9/  9 1020.6R
SAND KEY                   77                 1020.8R
SOMBRERO KEY               78                 1020.5R
LONG KEY                   78 79  110/ 12/ 14 1021.1R
MOLASSES REEF                     120/ 14       N/A

$$
FLZ067-068-071>074-168-172>174-190500-
SOUTHEAST FLORIDA 
  
CITY           SKY/WX    TMP DP  RH WIND       PRES   REMARKS
W PALM BEACH   MOCLDY    78  73  84 S9        30.18S                  
BOCA RATON     CLOUDY    79  73  83 S8        30.18S                  
FT LAUDER-EXEC FAIR      78  75  90 SE6       30.18R                  
FT LAUDERDALE  FAIR      78  76  93 SE6       30.17R                  
POMPANO BEACH  CLOUDY    78  73  84 SE6       30.18R                  
PEMBROKE PINES FAIR      77  72  84 CALM      30.19R                  
OPA LOCKA      FAIR      77  72  84 SE5       30.18R                  
MIAMI          MOCLDY    77  75  93 SE12      30.18S                  
WEST KENDALL   FAIR      77  73  87 SE7       30.17S                  
HOMESTEAD      FAIR      76  73  88 E7        30.17R                  

STATION/POSITION SKY/WX   TEMP    WIND        PRES    WAVE   SWELL
                          AIR SEA DIR/SP/G            HT/PER HT/PER
                          (F)     (DEG/KT/KT) (MB)    (FT/S) (FT/S)
PORT EVERGLADES            78     140/  8/ 10 1022.0
VIRGINIA KEY               78 78  110/  6/  7 1021.4R
LAKE WORTH                 77 77  200/ 12/ 13 1023.1R
FOWEY ROCKS                77 77  130/ 10/ 11 1022.6R
SETTLEMENT POINT           76     150/  7/  8 1022.6R

$$